Weather History for KHPN - December, 2014

Change the Weather History Date:

Friday, December 26, 2014

  Actual Average Record
Temperature  
Mean Temperature 42 °F -  
Max Temperature 48 °F 37 °F 61 °F (1982)
Min Temperature 36 °F 24 °F -2 °F (1980)
Degree Days  
Heating Degree Days 23    
Moisture  
Dew Point 28 °F    
Average Humidity 60    
Maximum Humidity 73    
Minimum Humidity 46    
Precipitation  
Precipitation 0.00 in - - ()
Sea Level Pressure  
Sea Level Pressure 30.19 in    
Wind  
Wind Speed 7 mph (West)    
Max Wind Speed 13 mph    
Max Gust Speed 16 mph    
Visibility 10 miles    
Events      
Averages and records for this station are not official NWS values.
T = Trace of Precipitation, MM = Missing Value Source: NWS Daily Summary

Daily Weather History Graph

Daily Weather History Graph

Search for Another Location

Airport or City:

Trip Planner

Search our weather history database for the weather conditions in past years. The results will help you decide how hot, cold, wet, or windy it might be!

Date:

Astronomy

Dec. 26, 2014 Rise Set
Actual Time 7:18 AM EST 4:32 PM EST
Civil Twilight 6:47 AM EST 5:03 PM EST
Nautical Twilight 6:12 AM EST 5:38 PM EST
Astronomical Twilight 5:39 AM EST 6:11 PM EST
Moon 10:26 AM EST (12/26) 10:14 PM EST (12/26)
Length of Visible Light 10h 16m
Length of Day
9h 13m
Waxing Crescent, 27% of the Moon is Illuminated
Dec 26
Waxing Crescent
Dec 28
First Quarter
Jan 4
Full
Jan 13
Last Quarter
Jan 20
New

Hourly Weather History & Observations

Time (EST) Temp. Windchill Dew Point Humidity Pressure Visibility Wind Dir Wind Speed Gust Speed Precip Events Conditions
12:56 AM 42.1 °F 37.7 °F 28.0 °F 58% 30.10 in 10.0 mi West 6.9 mph - N/A   Clear
1:56 AM 39.9 °F 33.9 °F 27.0 °F 60% 30.12 in 10.0 mi West 9.2 mph - N/A   Clear
2:56 AM 39.0 °F 33.4 °F 27.0 °F 62% 30.14 in 10.0 mi West 8.1 mph - N/A   Clear
3:56 AM 37.9 °F - 27.0 °F 65% 30.12 in 10.0 mi Calm Calm - N/A   Clear
4:56 AM 37.0 °F 33.3 °F 27.0 °F 67% 30.15 in 10.0 mi WSW 4.6 mph - N/A   Clear
5:56 AM 37.0 °F 32.4 °F 28.0 °F 70% 30.18 in 10.0 mi West 5.8 mph - N/A   Clear
6:56 AM 36.0 °F 29.6 °F 28.0 °F 73% 30.21 in 10.0 mi West 8.1 mph - N/A   Clear
7:56 AM 36.0 °F 30.3 °F 28.0 °F 73% 30.22 in 10.0 mi West 6.9 mph - N/A   Clear
8:56 AM 39.0 °F 33.4 °F 28.0 °F 65% 30.24 in 10.0 mi West 8.1 mph - N/A   Clear
9:56 AM 42.1 °F 35.2 °F 28.0 °F 58% 30.24 in 10.0 mi WNW 12.7 mph 16.1 mph N/A   Clear
10:56 AM 44.1 °F 38.1 °F 28.9 °F 55% 30.23 in 10.0 mi WNW 11.5 mph - N/A   Clear
11:56 AM 46.0 °F 41.9 °F 28.9 °F 51% 30.21 in 10.0 mi WNW 8.1 mph - N/A   Clear
12:56 PM 46.9 °F - 28.0 °F 48% 30.19 in 10.0 mi WNW 10.4 mph - N/A   Clear
1:56 PM 48.0 °F - 28.0 °F 46% 30.18 in 10.0 mi NW 8.1 mph - N/A   Clear
2:56 PM 48.0 °F - 28.0 °F 46% 30.17 in 10.0 mi NW 6.9 mph - N/A   Clear
3:56 PM 46.0 °F 43.1 °F 28.0 °F 50% 30.18 in 10.0 mi West 5.8 mph - N/A   Clear
4:56 PM 42.1 °F - 28.0 °F 58% 30.19 in 10.0 mi Calm Calm - N/A   Clear
5:56 PM 41.0 °F - 28.0 °F 60% 30.20 in 10.0 mi Calm Calm - N/A   Clear
6:56 PM 41.0 °F - 28.0 °F 60% 30.20 in 10.0 mi Calm Calm - N/A   Clear
7:56 PM 42.1 °F 39.2 °F 28.0 °F 58% 30.22 in 10.0 mi West 4.6 mph - N/A   Clear
8:56 PM 41.0 °F 36.4 °F 28.0 °F 60% 30.22 in 10.0 mi West 6.9 mph - N/A   Clear
9:56 PM 41.0 °F 36.4 °F 28.0 °F 60% 30.22 in 10.0 mi West 6.9 mph - N/A   Clear
10:56 PM 39.9 °F 35.1 °F 28.0 °F 63% 30.21 in 10.0 mi WNW 6.9 mph - N/A   Clear
11:56 PM 37.0 °F 33.3 °F 28.0 °F 70% 30.20 in 10.0 mi WNW 4.6 mph - N/A   Clear